Location: McFarlands Corners
(41.4117°N, 81.3382°W)
Time: 20:50:09
(UTC+00:00)

Vanguard 1 - Visible Passes

Search period start: 17 February 2026 00:00
Search period end: 27 February 2026 00:00
Orbit: 652 x 3820 km, 34.3° (Epoch: 15 February)

Date Brightness Start Highest point End Pass type
(mag) Time Alt. Az. Time Alt. Az. Time Alt. Az.
17 Feb 13.1 02:04:29 10° W 02:23:28 53° SSW 02:32:18 40° SSE visible
17 Feb 13.7 04:30:56 10° W 04:44:54 25° SW 04:44:54 25° SW visible
18 Feb 12.9 00:01:31 10° W 00:17:33 67° S 00:38:11 15° ESE visible
18 Feb 13.2 02:24:14 10° W 02:42:52 47° SSW 02:50:47 38° S visible
18 Feb 13.9 04:52:33 10° W 05:03:23 19° WSW 05:03:23 19° WSW visible
19 Feb 12.9 00:20:57 10° W 00:37:12 63° SSW 00:56:45 17° ESE visible
19 Feb 13.4 02:44:08 10° W 03:02:10 40° SW 03:09:22 34° S visible
19 Feb 14.1 05:16:04 10° WSW 05:21:58 13° WSW 05:21:58 13° WSW visible
20 Feb 13.0 00:40:25 10° W 00:56:48 58° SSW 01:15:25 18° SE visible
20 Feb 13.5 03:04:18 10° W 03:21:23 33° SW 03:28:02 29° SSW visible
21 Feb 13.1 00:59:57 10° W 01:16:21 52° SSW 01:34:10 19° SE visible
21 Feb 13.7 03:24:54 10° W 03:40:31 27° SW 03:46:48 24° SSW visible
21 Feb 12.8 22:58:01 10° W 23:11:10 65° S 23:32:55 10° ESE visible
22 Feb 13.3 01:19:35 10° W 01:35:49 46° SSW 01:53:02 18° SSE visible
22 Feb 13.9 03:46:16 10° W 03:59:35 20° SW 04:05:40 18° SSW visible
22 Feb 12.8 23:17:21 10° W 23:30:45 61° SSW 23:52:26 10° ESE visible
23 Feb 13.4 01:39:23 10° W 01:55:14 39° SSW 02:12:02 16° SSE visible
23 Feb 14.1 04:09:19 10° WSW 04:18:38 14° SW 04:24:40 12° SSW visible
23 Feb 13.0 23:36:44 10° W 23:50:19 56° SSW 00:11:45 10° SE visible
24 Feb 13.6 01:59:27 10° W 02:14:34 32° SW 02:31:08 14° SSE visible
24 Feb 13.1 23:56:12 10° W 00:09:51 50° SSW 00:30:48 10° SE visible
25 Feb 13.8 02:19:57 10° W 02:33:52 26° SW 02:50:23 10° S visible
26 Feb 13.3 00:15:46 10° W 00:29:22 43° SSW 00:49:33 10° SE visible
26 Feb 14.0 02:41:11 10° W 02:53:09 20° SW 03:06:59 10° S visible
